TAP1974 NTAA-NTTB

Flight info

Callsign TAP1974
Flight time 0h 32m
Altitude 16000
Route VAITE4E VAITE DCT HHN RU1B
Aircraft A319/M-SDE3FGHIRWY/LB1

Departure

Time 2026-04-27 20:09
Airport Fa'a'ā International Airport (NTAA)

Arrival

Time 2026-04-27 20:42
Airport Bora Bora Airport (NTTB)
Time Latitude Longitude Altitude Speed Heading
2026-04-27 19:41 -17.55929 -149.61168 22 ft 0 kts 323°
2026-04-27 20:01 -17.55934 -149.61159 22 ft 4 kts 34°
2026-04-27 20:01 -17.55945 -149.61173 22 ft 4 kts 40°
2026-04-27 20:02 -17.55967 -149.61186 22 ft 4 kts 28°
2026-04-27 20:02 -17.55981 -149.61198 23 ft 1 kts 55°
2026-04-27 20:02 -17.55982 -149.61200 22 ft 2 kts 55°
2026-04-27 20:04 -17.55977 -149.61192 22 ft 7 kts 55°
2026-04-27 20:04 -17.55920 -149.61113 22 ft 11 kts 34°
2026-04-27 20:04 -17.55849 -149.61119 22 ft 10 kts 12°
2026-04-27 20:05 -17.55789 -149.61074 23 ft 11 kts 15°
2026-04-27 20:05 -17.55715 -149.61108 23 ft 13 kts 324°
2026-04-27 20:05 -17.55685 -149.61177 20 ft 14 kts 249°
2026-04-27 20:05 -17.55751 -149.61277 20 ft 18 kts 234°
2026-04-27 20:06 -17.55824 -149.61383 19 ft 18 kts 234°
2026-04-27 20:06 -17.55898 -149.61489 21 ft 18 kts 234°
2026-04-27 20:06 -17.55970 -149.61594 21 ft 18 kts 234°
2026-04-27 20:06 -17.56042 -149.61701 22 ft 18 kts 234°
2026-04-27 20:07 -17.56113 -149.61804 23 ft 17 kts 233°
2026-04-27 20:07 -17.56185 -149.61907 22 ft 17 kts 234°
2026-04-27 20:07 -17.56217 -149.62000 23 ft 11 kts 269°
2026-04-27 20:07 -17.56240 -149.62017 23 ft 4 kts 154°
2026-04-27 20:08 -17.56235 -149.61977 23 ft 8 kts 54°
2026-04-27 20:08 -17.56199 -149.61927 22 ft 9 kts 54°
2026-04-27 20:08 -17.56160 -149.61870 23 ft 10 kts 54°
2026-04-27 20:08 -17.56119 -149.61810 23 ft 11 kts 54°
2026-04-27 20:09 -17.55959 -149.61575 21 ft 84 kts 54°
2026-04-27 20:09 -17.55451 -149.60841 23 ft 161 kts 54°
2026-04-27 20:09 -17.54719 -149.59794 484 ft 182 kts 52°
2026-04-27 20:09 -17.53914 -149.58750 1364 ft 186 kts 44°
2026-04-27 20:10 -17.52717 -149.58220 1912 ft 201 kts 360°
2026-04-27 20:10 -17.51418 -149.58809 2563 ft 216 kts 319°
2026-04-27 20:10 -17.50473 -149.60062 3361 ft 222 kts 306°
2026-04-27 20:10 -17.49631 -149.61443 4158 ft 227 kts 306°
2026-04-27 20:11 -17.48750 -149.62833 4984 ft 230 kts 307°
2026-04-27 20:11 -17.47813 -149.64200 5793 ft 232 kts 310°
2026-04-27 20:11 -17.46820 -149.65543 6574 ft 234 kts 311°
2026-04-27 20:11 -17.45783 -149.66869 7338 ft 237 kts 313°
2026-04-27 20:12 -17.44702 -149.68182 8067 ft 239 kts 317°
2026-04-27 20:12 -17.43405 -149.69342 8509 ft 256 kts 324°
2026-04-27 20:12 -17.41942 -149.70547 8814 ft 279 kts 324°
2026-04-27 20:12 -17.40361 -149.71829 9323 ft 293 kts 324°
2026-04-27 20:13 -17.38731 -149.73147 10046 ft 298 kts 324°
2026-04-27 20:13 -17.37045 -149.74510 10417 ft 318 kts 324°
2026-04-27 20:13 -17.35231 -149.75980 10624 ft 341 kts 323°
2026-04-27 20:13 -17.33317 -149.77537 11059 ft 354 kts 323°
2026-04-27 20:14 -17.31358 -149.79133 11703 ft 359 kts 323°
2026-04-27 20:14 -17.29376 -149.80747 12396 ft 363 kts 323°
2026-04-27 20:14 -17.27372 -149.82374 13067 ft 366 kts 323°
2026-04-27 20:14 -17.25349 -149.84012 13718 ft 370 kts 323°
2026-04-27 20:15 -17.23304 -149.85667 14369 ft 373 kts 323°
2026-04-27 20:15 -17.21244 -149.87338 15002 ft 376 kts 323°
2026-04-27 20:15 -17.19167 -149.89022 15615 ft 379 kts 323°
2026-04-27 20:15 -17.17072 -149.90719 15913 ft 381 kts 323°
2026-04-27 20:16 -17.14956 -149.92431 15994 ft 392 kts 323°
2026-04-27 20:16 -17.12761 -149.94205 16000 ft 403 kts 323°
2026-04-27 20:16 -17.10581 -149.96067 15996 ft 406 kts 317°
2026-04-27 20:16 -17.08725 -149.98300 15999 ft 409 kts 307°
2026-04-27 20:17 -17.07301 -150.00878 15998 ft 411 kts 295°
2026-04-27 20:17 -17.06226 -150.03645 15999 ft 411 kts 292°
2026-04-27 20:17 -17.05164 -150.06423 15998 ft 412 kts 293°
2026-04-27 20:17 -17.04096 -150.09204 15998 ft 412 kts 293°
2026-04-27 20:18 -17.03025 -150.11982 15999 ft 412 kts 293°
2026-04-27 20:18 -17.01955 -150.14758 15999 ft 412 kts 293°
2026-04-27 20:18 -17.00887 -150.17535 15999 ft 412 kts 293°
2026-04-27 20:18 -16.99819 -150.20314 15999 ft 412 kts 293°
2026-04-27 20:19 -16.98746 -150.23097 16000 ft 412 kts 293°
2026-04-27 20:19 -16.97677 -150.25872 16002 ft 412 kts 293°
2026-04-27 20:19 -16.96605 -150.28656 16002 ft 413 kts 293°
2026-04-27 20:19 -16.95537 -150.31436 16003 ft 413 kts 293°
2026-04-27 20:20 -16.94465 -150.34218 16005 ft 413 kts 293°
2026-04-27 20:20 -16.93394 -150.36993 16007 ft 413 kts 293°
2026-04-27 20:20 -16.92319 -150.39775 16011 ft 413 kts 293°
2026-04-27 20:20 -16.91246 -150.42558 16011 ft 413 kts 293°
2026-04-27 20:21 -16.90172 -150.45338 16010 ft 413 kts 293°
2026-04-27 20:21 -16.89095 -150.48119 16010 ft 413 kts 293°
2026-04-27 20:21 -16.88034 -150.50860 16010 ft 413 kts 293°
2026-04-27 20:21 -16.86961 -150.53641 16010 ft 413 kts 293°
2026-04-27 20:22 -16.85887 -150.56421 16009 ft 413 kts 293°
2026-04-27 20:22 -16.84813 -150.59200 16008 ft 413 kts 293°
2026-04-27 20:22 -16.83737 -150.61976 16007 ft 413 kts 293°
2026-04-27 20:22 -16.82659 -150.64750 16006 ft 412 kts 293°
2026-04-27 20:23 -16.81582 -150.67523 16005 ft 412 kts 293°
2026-04-27 20:23 -16.80504 -150.70301 16004 ft 413 kts 293°
2026-04-27 20:23 -16.79430 -150.73073 16004 ft 413 kts 293°
2026-04-27 20:23 -16.78354 -150.75851 16004 ft 413 kts 293°
2026-04-27 20:24 -16.77278 -150.78627 16004 ft 413 kts 293°
2026-04-27 20:24 -16.76201 -150.81400 16004 ft 412 kts 293°
2026-04-27 20:24 -16.75121 -150.84171 16002 ft 412 kts 293°
2026-04-27 20:24 -16.74041 -150.86940 16001 ft 412 kts 293°
2026-04-27 20:25 -16.72962 -150.89709 15999 ft 412 kts 293°
2026-04-27 20:25 -16.71883 -150.92479 15999 ft 412 kts 293°
2026-04-27 20:25 -16.70804 -150.95249 16000 ft 412 kts 293°
2026-04-27 20:25 -16.69730 -150.98022 15996 ft 412 kts 291°
2026-04-27 20:26 -16.68982 -151.00909 15993 ft 414 kts 280°
2026-04-27 20:26 -16.68758 -151.03900 15993 ft 415 kts 269°
2026-04-27 20:26 -16.68944 -151.06903 15993 ft 415 kts 266°
2026-04-27 20:26 -16.69153 -151.09899 15991 ft 415 kts 266°
2026-04-27 20:27 -16.69356 -151.12900 15990 ft 415 kts 266°
2026-04-27 20:27 -16.69551 -151.15902 15992 ft 415 kts 266°
2026-04-27 20:27 -16.69747 -151.18907 15998 ft 415 kts 266°
2026-04-27 20:27 -16.69943 -151.21908 16002 ft 415 kts 266°
2026-04-27 20:28 -16.70138 -151.24912 16004 ft 415 kts 266°
2026-04-27 20:28 -16.70335 -151.27917 16005 ft 415 kts 266°
2026-04-27 20:28 -16.70544 -151.30918 16006 ft 415 kts 265°
2026-04-27 20:28 -16.70719 -151.32899 16007 ft 415 kts 264°
2026-04-27 20:29 -16.71146 -151.36865 16008 ft 415 kts 263°
2026-04-27 20:29 -16.71501 -151.39857 16011 ft 416 kts 264°
2026-04-27 20:29 -16.71569 -151.42864 16009 ft 415 kts 275°
2026-04-27 20:29 -16.71018 -151.45805 16011 ft 414 kts 288°
2026-04-27 20:30 -16.69893 -151.48521 15803 ft 402 kts 301°
2026-04-27 20:30 -16.68290 -151.50842 15548 ft 390 kts 313°
2026-04-27 20:30 -16.66385 -151.52833 15311 ft 386 kts 317°
2026-04-27 20:30 -16.64487 -151.54781 14886 ft 380 kts 316°
2026-04-27 20:31 -16.62610 -151.56711 14343 ft 378 kts 316°
2026-04-27 20:31 -16.60744 -151.58631 13827 ft 375 kts 316°
2026-04-27 20:31 -16.58898 -151.60536 13268 ft 373 kts 316°
2026-04-27 20:31 -16.57068 -151.62430 12729 ft 370 kts 316°
2026-04-27 20:32 -16.55251 -151.64312 12181 ft 367 kts 316°
2026-04-27 20:32 -16.53445 -151.66179 11630 ft 364 kts 316°
2026-04-27 20:32 -16.51649 -151.68032 11070 ft 362 kts 316°
2026-04-27 20:32 -16.49868 -151.69867 10632 ft 356 kts 316°
2026-04-27 20:33 -16.48164 -151.71623 10501 ft 333 kts 317°
2026-04-27 20:33 -16.46564 -151.73267 10383 ft 316 kts 317°
2026-04-27 20:33 -16.44905 -151.74697 10159 ft 305 kts 329°
2026-04-27 20:33 -16.43029 -151.75662 9940 ft 298 kts 342°
2026-04-27 20:34 -16.41030 -151.76186 9811 ft 296 kts 351°
2026-04-27 20:34 -16.39016 -151.76613 9559 ft 297 kts 351°
2026-04-27 20:34 -16.36985 -151.77048 9092 ft 297 kts 351°
2026-04-27 20:34 -16.34975 -151.77484 8629 ft 296 kts 350°
2026-04-27 20:35 -16.32962 -151.77922 8266 ft 292 kts 350°
2026-04-27 20:35 -16.31035 -151.78561 7842 ft 292 kts 336°
2026-04-27 20:35 -16.29368 -151.79756 7397 ft 293 kts 318°
2026-04-27 20:35 -16.28090 -151.81392 6772 ft 291 kts 306°
2026-04-27 20:36 -16.26948 -151.83121 6080 ft 289 kts 307°
2026-04-27 20:36 -16.25991 -151.84947 5416 ft 289 kts 287°
2026-04-27 20:36 -16.25932 -151.86976 4784 ft 286 kts 256°
2026-04-27 20:36 -16.26847 -151.88791 4077 ft 285 kts 225°
2026-04-27 20:37 -16.28462 -151.89936 3392 ft 280 kts 204°
2026-04-27 20:37 -16.30163 -151.90926 2799 ft 282 kts 206°
2026-04-27 20:37 -16.31973 -151.91467 2632 ft 262 kts 176°
2026-04-27 20:37 -16.33624 -151.90982 2557 ft 239 kts 143°
2026-04-27 20:38 -16.34712 -151.89791 2462 ft 221 kts 121°
2026-04-27 20:38 -16.35566 -151.88507 2357 ft 210 kts 121°
2026-04-27 20:38 -16.36372 -151.87294 2278 ft 194 kts 121°
2026-04-27 20:38 -16.37095 -151.86207 2181 ft 173 kts 121°
2026-04-27 20:39 -16.37746 -151.85228 2093 ft 156 kts 121°
2026-04-27 20:39 -16.38337 -151.84334 2030 ft 146 kts 120°
2026-04-27 20:39 -16.38903 -151.83480 1845 ft 138 kts 121°
2026-04-27 20:39 -16.39432 -151.82683 1645 ft 131 kts 121°
2026-04-27 20:40 -16.39947 -151.81905 1465 ft 130 kts 121°
2026-04-27 20:40 -16.40457 -151.81136 1291 ft 129 kts 121°
2026-04-27 20:40 -16.40966 -151.80369 1111 ft 128 kts 121°
2026-04-27 20:40 -16.41470 -151.79609 943 ft 127 kts 120°
2026-04-27 20:41 -16.41972 -151.78850 770 ft 127 kts 121°
2026-04-27 20:41 -16.42478 -151.78093 587 ft 128 kts 121°
2026-04-27 20:41 -16.42980 -151.77326 346 ft 128 kts 120°
2026-04-27 20:41 -16.43496 -151.76564 135 ft 127 kts 122°
2026-04-27 20:42 -16.43993 -151.75803 40 ft 127 kts 121°
2026-04-27 20:42 -16.44410 -151.75170 27 ft 68 kts 124°
2026-04-27 20:42 -16.44531 -151.74984 28 ft 9 kts 125°
2026-04-27 20:42 -16.44560 -151.74951 28 ft 2 kts 55°
2026-04-27 20:43 -16.44542 -151.74967 28 ft 9 kts 310°
2026-04-27 20:43 -16.44504 -151.75026 28 ft 11 kts 304°
2026-04-27 20:43 -16.44454 -151.75100 27 ft 14 kts 304°
2026-04-27 20:43 -16.44403 -151.75179 27 ft 12 kts 304°
2026-04-27 20:44 -16.44387 -151.75259 26 ft 12 kts 237°
2026-04-27 20:44 -16.44462 -151.75316 27 ft 14 kts 214°
2026-04-27 20:44 -16.44526 -151.75365 27 ft 9 kts 230°
2026-04-27 20:44 -16.44517 -151.75426 27 ft 9 kts 304°
2026-04-27 20:45 -16.44517 -151.75480 27 ft 7 kts 195°
2026-04-27 20:45 -16.44560 -151.75446 28 ft 8 kts 127°
2026-04-27 20:45 -16.44576 -151.75414 28 ft 4 kts 121°
2026-04-27 20:45 -16.44580 -151.75409 25 ft 0 kts 131°
2026-04-27 20:47 -16.44580 -151.75415 25 ft 0 kts 210°